Tracking 17694 objects as of 27-May-2016
HD Live streaming from Space Station
objects crossing your sky now

BREEZE-M DEB

Track BREEZE-M DEB now!
10-day predictions


NORAD ID: 34250
Int'l Code: 2006-006BR
Perigee: 487.7 km
Apogee: 14,759.5 km
Inclination: 51.7 °
Period: 274.6 minutes
Semi major axis: 13994 km
RCS: 0.0694 m2 (small)
Launch date: February 28, 2006
Source: Commonwealth of Independent States (former USSR) (CIS)
Launch site: TYURATAM MISSILE AND SPACE COMPLEX (TTMTR)

Note: This is SATELLITE DEBRIS
Your satellite tracking list
Your tracking list is empty





NASA's NSSDC Master Catalog

Two Line Element Set (TLE):
1 34250U 06006BR  16143.82048406  .00001193  00000-0  17642-2 0  9999
2 34250  51.7459 322.3525 5099054 186.4579 163.0938  5.24404286161622
Source of the keplerian elements: AFSPC

N2YO: 594